Regional Weather Roundup
Issued by NWS Charleston, SC

Current Version | Previous Version | Graphics & Text | Print | Product List | Glossary On
Versions: 1 2 3 4 5 6 7 8 9 10 11 12 13 14 15 16 17 18 19 20 21 22 23 24 25 26 27 28 29 30 31 32 33 34 35 36 37 38 39 40 41 42 43 44 45 46 47 48 49 50
000 ASUS42 KCHS 210612 RWRCHS Regional Weather Roundup National Weather Service Charleston SC 100 AM EST SUN JAN 21 2018 NOTE: "fair" indicates few or no clouds below 12,000 feet with no significant weather and/or obstructions to visibility. Not all stations are quality controlled. Use data with caution, especially dewpoint observations. SCZ027-030-031-034>040-042>050-210700- ...Southeast South Carolina... CITY SKY/WX TMP DP RH WIND PRES REMARKS N Charleston MOCLDY 47 31 53 W5 30.24F 6HR MIN TEMP: 44; 6HR MAX TEMP: 50; Waterfront Prk NOT AVBL Mount Pleasant FAIR 45 34 65 CALM 30.25F Johns Island FAIR 46 32 57 SW3 30.25S Pinopolis N/A 45 37 76 CALM 30.17F Moncks Corner FAIR 39 32 75 CALM 30.24F Summerville FAIR 39 32 75 CALM 30.26S Beaufort MCAS FAIR 46 35 65 SW5 30.26S 6HR MIN TEMP: 44; 6HR MAX TEMP: 50; Beaufort Arpt FAIR 46 34 61 SW3 30.25S Hilton Head Is FAIR 52 28 40 SW5 30.26S Walterboro FAIR 41 32 70 CALM 30.26S Allendale FAIR 41 37 87 CALM 30.24S ...Southern Midlands and Pee Dee... CITY SKY/WX TMP DP RH WIND PRES REMARKS Georgetown FAIR 41 30 65 SW3 30.25S Kingstree FAIR 34 32 93 CALM 30.23F Orangeburg FAIR 37 35 92 CALM 30.23F 6HR MIN TEMP: 37; 6HR MAX TEMP: 50; Barnwell N/A 37 36 93 CALM 30.24S Aiken FAIR 34 32 93 CALM 30.25F Manning FAIR 37 32 81 MISG 30.24S Columbia FAIR 35 32 88 CALM 30.22F 6HR MIN TEMP: 35; 6HR MAX TEMP: 47; Sumter FAIR 37 31 82 CALM 30.20F 6HR MIN TEMP: 37; 6HR MAX TEMP: 50; Florence FAIR 37 31 78 CALM 30.22F 6HR MIN TEMP: 35; 6HR MAX TEMP: 48; Myrtle Beach FAIR 44 28 53 W5 30.24F N Myrtle Beach FAIR 37 33 85 CALM 30.22F 6HR MIN TEMP: 37; 6HR MAX TEMP: 48; $$ GAZ063-065-086>088-099>101-113>116-118-119-134>141-150-210700- ...Southeast Georgia... CITY SKY/WX TMP DP RH WIND PRES REMARKS Savannah Arpt FAIR 49 28 44 CALM 30.26F 6HR MIN TEMP: 46; 6HR MAX TEMP: 54; Hunter AAF CLOUDY 50 28 42 SW3 30.23F 6HR MIN TEMP: 45; 6HR MAX TEMP: 51; Fort Stewart CLOUDY 45 35 69 CALM 30.24F 6HR MIN TEMP: 44; 6HR MAX TEMP: 50; Statesboro FAIR 48 31 51 SW3 30.26S Sylvania FAIR 47 38 69 CALM 30.26S Claxton FAIR 43 38 80 CALM 30.26F ...CSRA, Central and far Southeast Georgia... CITY SKY/WX TMP DP RH WIND PRES REMARKS Thomson FAIR 36 33 90 CALM 30.27F Augusta-Bush FAIR 34 33 96 CALM 30.23F 6HR MIN TEMP: 34; 6HR MAX TEMP: 50; Augusta-Daniel FAIR 47 38 71 CALM 30.23F Swainsboro FAIR 43 41 93 CALM 30.25F FOG Vidalia FAIR 48 36 61 SW5 30.26F Eastman FAIR 44 35 73 CALM 30.29S Hazlehurst FAIR 51 24 34 CALM 30.25F Alma FAIR 43 35 73 CALM 30.26F 6HR MIN TEMP: 40; 6HR MAX TEMP: 48; Waycross FAIR 46 30 53 NW3 30.26F Jesup FAIR 46 34 61 CALM 30.26F Baxley FAIR 43 32 65 CALM 30.26F Brunswick FAIR 45 36 70 CALM 30.26F Saint Simons FAIR 48 37 65 CALM 30.25F 6HR MIN TEMP: 47; 6HR MAX TEMP: 51; $$ SCZ027-028-034-036>038-045-046-048>050-GAZ119-141-210700- ...Lake and Supplemental Coastal Observations... STATION/POSITION TIME TEMP WIND PRES WAVE SWELL AIR SEA DIR/SP/G HT/PER HT/PER/DIR (UTC) (F) (DEG/KT/KT) (MB) (FT/S) (FT/S/D) Winyah Bay 0445 48 250/ 4 1025.0 Lake Murray 0520 44 CALM 1022.7 ACE Basin NERRS 0445 43 CALM 1025.0 Fort Pulaski 0548 45 210/ 3/ 3 1024.9R Sapelo Island 0500 46 200/ 2 1025.0 $$ ANZ835-935-AMZ111-154-330-350-352-354-370-450-454-472-210700- ...C-MAN and Buoy Observations... STATION/POSITION TIME TEMP WIND PRES WAVE SWELL AIR SEA DIR/SP/G HT/PER HT/PER/DIR (UTC) (F) (DEG/KT/KT) (MB) (FT/S) (FT/S/D) Buoy 41004 0550 62 70 260/ 14/ 17 1023.5F 3/ 4 2/150/10 Buoy 41008 0550 51 51 240/ 4/ 6 1024.4F 1/10 2/ 90/10 Folly Beach CMAN 0500 49 240/ 7/ 9 1025.0F Capers Nearshore 0508 47 250/ 12/ 16 1024.1F Fripp Nearshore 0508 45 46 250/ 8/ 10 1025.0R STATION/POSITION TIME TEMP WIND PRES WAVE SWELL AIR SEA DIR/SP/G HT/PER HT/PER/DIR (UTC) (F) (DEG/KT/KT) (MB) (FT/S) (FT/S/D) 5E St. Marys GA 0530 49 N/A 1/10 Frying Pan Buoy 0550 56 56 270/ 12/ 14 1022.8F 3/ 5 2/120/10 Buoy 41025 0550 60 68 280/ 17/ 21 1022.6R 5/ 6 2/ 90/11 Cape Lookout NC 0500 260/ 11/ 13 1023.2F Buoy 41002 0550 67 70 240/ 12/ 14 1024.0F 4/ 6 3/290/ 6 Buoy 41010 NOT AVBL St Augustine FL 0600 51 51 340/ 5/ 6 1024.5F $$

USA.gov is the U.S. government's official web portal to all federal, state and local government web resources and services.